Tracking 20376 objects as of 22-Feb-2020
HD Live streaming from Space Station
objects crossing your sky now
Track the group of recently launched Starlink satellites

FENGYUN 2G DEB

Track FENGYUN 2G DEB now!


NORAD ID: 43646
Int'l Code: 2014-090D
Perigee: 35,209.0 km
Apogee: 36,397.3 km
Inclination: 1.8 °
Period: 1,436.6 minutes
Semi major axis: 42174 km
RCS: Unknown
Launch date: December 31, 2014
Source: People's Republic of China (PRC)
Launch site: Xichang Space Center, China (XSC)

Note: This is SATELLITE DEBRIS
aabbcc
Your satellite tracking list
Your tracking list is empty




NASA's NSSDC Master Catalog

Two Line Element Set (TLE):
1 43646U 14090D   20051.69819630  .00000001  00000-0  00000+0 0  9997
2 43646   1.8079  96.4399 0140874 202.2217 157.3907  1.00238277 18551
Source of the keplerian elements: AFSPC